{"data":{"norad_id":31598,"intl_designator":"2007-023A","name":"COSMO-SKYMED 1","alt_names":[],"object_type":"PAYLOAD","status":"ACTIVE","operator":null,"country":"IT","launch_date":"2007-06-08","launch_site_code":"AFWTR","launch_vehicle":null,"mission":null,"orbit_class":"UNKNOWN","rcs_meters":4.682,"size_class":null,"mass_kg":null,"dimensions":null,"purposes":["earth_obs"],"wikipedia_slug":null,"has_3d_model":false,"image_url":null,"decayed_at":null,"tle_current":{"epoch":"2026-05-25T03:24:43.343712Z","epoch_age_seconds":56136,"freshness":"FRESH","line1":"1 31598U 07023A   26145.14216833  .00002576  00000+0  22929-3 0  9990","line2":"2 31598  97.8861 336.8060 0001707  96.7856 263.3560 14.96971685 26345","mean_motion":14.96971685,"eccentricity":0.0001707,"inclination_deg":97.8861,"raan_deg":336.806,"arg_perigee_deg":96.7856,"mean_anomaly_deg":263.356,"bstar":0.00022929,"rev_number":2634,"period_min":96.194204234397,"perigee_km":575.07242839792,"apogee_km":577.446659378,"semimajor_km":6954.396543888,"source":"CELESTRAK","updated_at":"2026-05-25T13:38:12.744436Z"}}}